| time (UTC) | temp C | wind direction | speed KPH | gust KPH | rain 1hr cm | rain 24hr cm | rain mn cm | humidity % | barometer mb |
| 20260506154548 | 15 | 292 | 4.8 | 0.0 | 0.00 | 0.00 | 0.00 | 78 | 1020.9 |
| 20260506153036 | 14 | 264 | 3.2 | 0.0 | 0.00 | 0.00 | 0.00 | 80 | 1021.0 |
| 20260506151530 | 13 | 244 | 4.8 | 0.0 | 0.00 | 0.00 | 0.00 | 82 | 1020.8 |
| 20260506150028 | 13 | 244 | 4.8 | 0.0 | 0.00 | 0.00 | 0.00 | 83 | 1020.8 |
| 20260506144526 | 12 | 281 | 3.2 | 0.0 | 0.00 | 0.00 | 0.00 | 85 | 1020.8 |
| 20260506143023 | 12 | 244 | 6.4 | 0.0 | 0.00 | 0.00 | 0.00 | 86 | 1020.7 |
| 20260506141522 | 12 | 252 | 4.8 | 0.0 | 0.00 | 0.00 | 0.00 | 87 | 1020.7 |
| 20260506140019 | 11 | 209 | 4.8 | 0.0 | 0.00 | 0.00 | 0.00 | 89 | 1020.4 |
| 20260506134518 | 11 | 274 | 4.8 | 0.0 | 0.00 | 0.00 | 0.00 | 89 | 1020.3 |
| 20260506133017 | 11 | 246 | 4.8 | 0.0 | 0.00 | 0.00 | 0.00 | 89 | 1020.2 |
| 20260506131517 | 11 | 223 | 3.2 | 0.0 | 0.00 | 0.00 | 0.00 | 89 | 1020.2 |
| 20260506130017 | 11 | 248 | 3.2 | 0.0 | 0.00 | 0.00 | 0.00 | 89 | 1020.1 |
| 20260506124515 | 11 | 242 | 3.2 | 0.0 | 0.00 | 0.00 | 0.00 | 89 | 1020.0 |
| 20260506123015 | 11 | 233 | 3.2 | 0.0 | 0.00 | 0.00 | 0.00 | 88 | 1020.0 |
| 20260506121514 | 11 | 263 | 3.2 | 0.0 | 0.00 | 0.00 | 0.00 | 88 | 1019.9 |
| 20260506120013 | 11 | 269 | 1.6 | 0.0 | 0.00 | 0.00 | 0.00 | 88 | 1019.7 |
| 20260506114512 | 11 | 269 | 1.6 | 0.0 | 0.00 | 0.00 | 0.00 | 88 | 1019.6 |
| 20260506113011 | 11 | 276 | 3.2 | 0.0 | 0.00 | 0.00 | 0.00 | 87 | 1019.6 |
| 20260506111513 | 11 | 203 | 1.6 | 0.0 | 0.00 | 0.00 | 0.00 | 87 | 1019.5 |
| 20260506110009 | 11 | 276 | 3.2 | 0.0 | 0.00 | 0.00 | 0.00 | 86 | 1019.4 |
| 20260506104507 | 11 | 311 | 3.2 | 0.0 | 0.00 | 0.00 | 0.00 | 86 | 1019.3 |
| 20260506103007 | 11 | 256 | 4.8 | 0.0 | 0.00 | 0.00 | 0.00 | 85 | 1019.2 |
| 20260506101507 | 11 | 214 | 6.4 | 0.0 | 0.00 | 0.00 | 0.00 | 85 | 1019.1 |
| 20260506100007 | 11 | 230 | 6.4 | 0.0 | 0.00 | 0.00 | 0.00 | 85 | 1019.0 |
| 20260506094506 | 11 | 239 | 4.8 | 0.0 | 0.00 | 0.00 | 0.00 | 85 | 1019.1 |
| 20260506093005 | 11 | 276 | 3.2 | 0.0 | 0.00 | 0.00 | 0.00 | 84 | 1019.2 |
| 20260506091502 | 11 | 30 | 0.0 | 0.0 | 0.00 | 0.00 | 0.00 | 85 | 1019.3 |
| 20260506090001 | 11 | 266 | 1.6 | 0.0 | 0.00 | 0.00 | 0.00 | 86 | 1019.1 |
| 20260506084602 | 11 | 269 | 3.2 | 0.0 | 0.00 | 0.00 | 0.00 | 85 | 1019.1 |
| 20260506083104 | 11 | 263 | 4.8 | 0.0 | 0.00 | 0.00 | 0.00 | 85 | 1019.2 |
| 20260506081559 | 11 | 245 | 4.8 | 0.0 | 0.00 | 0.00 | 0.00 | 85 | 1019.3 |
| 20260506073052 | 11 | 266 | 6.4 | 0.0 | 0.00 | 0.00 | 0.00 | 86 | 1019.0 |
| 20260506071548 | 11 | 234 | 6.4 | 0.0 | 0.00 | 0.00 | 0.00 | 86 | 1018.9 |
| 20260506061545 | 11 | 243 | 8.0 | 0.0 | 0.00 | 0.00 | 0.13 | 87 | 1018.6 |
| 20260506044546 | 11 | 232 | 6.4 | 0.0 | 0.00 | 0.00 | 0.13 | 84 | 1018.1 |
| 20260506043039 | 11 | 241 | 6.4 | 0.0 | 0.00 | 0.00 | 0.13 | 84 | 1017.9 |
| 20260506041539 | 12 | 263 | 3.2 | 0.0 | 0.00 | 0.00 | 0.13 | 83 | 1017.6 |
| 20260506040054 | 12 | 235 | 1.6 | 0.0 | 0.00 | 0.00 | 0.13 | 83 | 1017.5 |
| 20260506034538 | 12 | 263 | 4.8 | 0.0 | 0.00 | 0.00 | 0.13 | 82 | 1017.2 |
| 20260506033036 | 12 | 258 | 4.8 | 0.0 | 0.00 | 0.00 | 0.13 | 80 | 1017.0 |
| 20260506031552 | 13 | 266 | 3.2 | 0.0 | 0.00 | 0.00 | 0.13 | 80 | 1016.8 |
| 20260506030037 | 13 | 269 | 6.4 | 0.0 | 0.00 | 0.00 | 0.13 | 80 | 1016.5 |
| 20260506024535 | 13 | 223 | 6.4 | 0.0 | 0.00 | 0.00 | 0.13 | 79 | 1016.5 |
| 20260506023036 | 13 | 227 | 8.0 | 0.0 | 0.00 | 0.00 | 0.13 | 78 | 1016.5 |
| 20260506021534 | 13 | 237 | 6.4 | 0.0 | 0.00 | 0.00 | 0.13 | 78 | 1016.3 |
| 20260506020033 | 13 | 237 | 9.7 | 0.0 | 0.00 | 0.00 | 0.13 | 78 | 1016.0 |
| 20260506014534 | 14 | 230 | 6.4 | 0.0 | 0.00 | 0.00 | 0.13 | 78 | 1015.9 |
| 20260506013033 | 14 | 271 | 6.4 | 0.0 | 0.00 | 0.00 | 0.13 | 77 | 1016.0 |
| 20260506011536 | 15 | 246 | 9.7 | 0.0 | 0.00 | 0.00 | 0.13 | 77 | 1015.9 |
| 20260506010031 | 15 | 224 | 8.0 | 0.0 | 0.00 | 0.00 | 0.13 | 75 | 1015.8 |
| 20260506004530 | 15 | 226 | 9.7 | 0.0 | 0.00 | 0.00 | 0.13 | 75 | 1015.7 |
| 20260506003030 | 15 | 235 | 14.5 | 0.0 | 0.00 | 0.00 | 0.13 | 75 | 1015.6 |
| 20260506001530 | 15 | 238 | 11.3 | 0.0 | 0.00 | 0.00 | 0.13 | 74 | 1015.4 |
| 20260506000029 | 15 | 235 | 12.9 | 0.0 | 0.00 | 0.00 | 0.13 | 75 | 1015.4 |
| 20260505234529 | 16 | 191 | 11.3 | 0.0 | 0.00 | 0.00 | 0.13 | 76 | 1015.4 |
| 20260505233030 | 16 | 219 | 9.7 | 0.0 | 0.00 | 0.00 | 0.13 | 76 | 1015.4 |
| 20260505231537 | 16 | 219 | 12.9 | 0.0 | 0.00 | 0.00 | 0.13 | 76 | 1015.4 |
| 20260505230032 | 16 | 222 | 11.3 | 0.0 | 0.00 | 0.00 | 0.13 | 75 | 1015.4 |
| 20260505224525 | 16 | 238 | 6.4 | 0.0 | 0.00 | 0.00 | 0.13 | 74 | 1015.4 |
| 20260505223021 | 16 | 234 | 8.0 | 0.0 | 0.00 | 0.00 | 0.13 | 72 | 1015.4 |
| 20260505221516 | 16 | 210 | 9.7 | 0.0 | 0.00 | 0.00 | 0.13 | 72 | 1015.4 |
| 20260505220011 | 16 | 216 | 6.4 | 0.0 | 0.00 | 0.00 | 0.13 | 71 | 1015.5 |
| 20260505214508 | 17 | 198 | 4.8 | 0.0 | 0.00 | 0.00 | 0.13 | 68 | 1015.6 |
| 20260505213003 | 17 | 222 | 4.8 | 0.0 | 0.00 | 0.00 | 0.13 | 68 | 1015.7 |
| 20260505211610 | 16 | 254 | 6.4 | 0.0 | 0.00 | 0.00 | 0.13 | 68 | 1015.8 |
| 20260505210057 | 16 | 249 | 9.7 | 0.0 | 0.00 | 0.00 | 0.13 | 70 | 1015.9 |
| 20260505204552 | 16 | 272 | 6.4 | 0.0 | 0.00 | 0.00 | 0.13 | 72 | 1015.9 |
| 20260505203049 | 15 | 241 | 8.0 | 0.0 | 0.00 | 0.00 | 0.13 | 74 | 1015.9 |
| 20260505201546 | 15 | 255 | 8.0 | 0.0 | 0.00 | 0.00 | 0.13 | 74 | 1016.0 |
| 20260505200048 | 15 | 283 | 6.4 | 0.0 | 0.00 | 0.00 | 0.13 | 73 | 1016.2 |
| 20260505194542 | 15 | 275 | 3.2 | 0.0 | 0.00 | 0.00 | 0.13 | 74 | 1016.2 |
| 20260505193040 | 15 | 315 | 6.4 | 0.0 | 0.00 | 0.00 | 0.13 | 75 | 1016.3 |
| 20260505191541 | 15 | 229 | 4.8 | 0.0 | 0.00 | 0.00 | 0.13 | 74 | 1016.2 |
| 20260505190040 | 15 | 60 | 9.7 | 0.0 | 0.00 | 0.00 | 0.13 | 76 | 1016.1 |
| 20260505184536 | 15 | 240 | 8.0 | 0.0 | 0.00 | 0.00 | 0.13 | 76 | 1016.0 |
| 20260505183038 | 15 | 298 | 8.0 | 0.0 | 0.00 | 0.00 | 0.13 | 77 | 1016.0 |
| 20260505181529 | 13 | 257 | 6.4 | 0.0 | 0.00 | 0.00 | 0.13 | 79 | 1016.1 |
| 20260505180025 | 13 | 286 | 6.4 | 0.0 | 0.00 | 0.00 | 0.13 | 80 | 1016.0 |
| 20260505174527 | 13 | 263 | 6.4 | 0.0 | 0.00 | 0.00 | 0.13 | 81 | 1016.0 |
| 20260505173024 | 13 | 281 | 8.0 | 0.0 | 0.00 | 0.00 | 0.13 | 80 | 1015.8 |
| 20260505171524 | 13 | 319 | 3.2 | 0.0 | 0.00 | 0.00 | 0.13 | 82 | 1015.8 |
| 20260505170023 | 13 | 276 | 6.4 | 0.0 | 0.00 | 0.00 | 0.13 | 83 | 1015.8 |
| 20260505164520 | 13 | 245 | 4.8 | 0.0 | 0.00 | 0.00 | 0.13 | 86 | 1015.9 |
| 20260505163019 | 12 | 282 | 3.2 | 0.0 | 0.00 | 0.00 | 0.13 | 86 | 1015.8 |
| 20260505161518 | 12 | 214 | 3.2 | 0.0 | 0.00 | 0.00 | 0.13 | 86 | 1015.6 |